Eagle, AK

8:02 PM AKDT on September 19, 2019 (GMT -0800)
Eagle

Weather History for PAEG - August, 2019

Change the Weather History Date:

Sunday, August 25, 2019

  Actual Average (WUND) Record (WUND)
Temperature  
Mean Temperature 47 °F -  
Max Temperature 68 °F - - (-1)
Min Temperature 28 °F - - (-1)
Degree Days  
Heating Degree Days 18    
Moisture  
Dew Point 35 °F    
Average Humidity 76    
Maximum Humidity 96    
Minimum Humidity 37    
Precipitation  
Precipitation 0.00 in - - ()
Sea Level Pressure  
Sea Level Pressure 29.88 in    
Wind  
Wind Speed 2 mph ()    
Max Wind Speed 8 mph    
Max Gust Speed -    
Visibility 9.8 miles    
Events      
Averages and records for this station are not official NWS values.
T = Trace of Precipitation, MM = Missing Value Source: Averaged Metar Reports

Daily Weather History Graph

Daily Weather History Graph

Search for Another Location

Airport or City:

Astronomy

Aug. 25, 2019 Rise Set
Actual Time 5:43 AM AKDT 9:08 PM AKDT
Civil Twilight 4:43 AM AKDT 10:06 PM AKDT
Nautical Twilight 3:10 AM AKDT 11:37 PM AKDT
Astronomical Twilight Sun does not set Sun does not set
Moon 11:31 PM AKDT (8/25) 7:23 PM AKDT (8/25)
Length of Visible Light 17h 22m
Length of Day
15h 24m
Waning Crescent, 27% of the Moon is Illuminated
Aug 25
Waning Crescent
Aug 30
New
Sep 5
First Quarter
Sep 13
Full
Sep 21
Last Quarter

Hourly Weather History & Observations

Time (AKDT) Temp. Windchill Dew Point Humidity Pressure Visibility Wind Dir Wind Speed Gust Speed Precip Events Conditions
12:53 AM 32.0 °F 28.7 °F 30.9 °F 96% 29.85 in 10.0 mi SSE 3.5 mph - N/A   Clear
1:53 AM 30.0 °F - 28.9 °F 96% 29.86 in 10.0 mi Calm Calm - N/A   Clear
2:53 AM 28.9 °F - 28.0 °F 96% 29.87 in 10.0 mi Calm Calm - N/A   Clear
3:53 AM 28.9 °F 25.2 °F 28.0 °F 96% 29.88 in 10.0 mi South 3.5 mph - N/A   Clear
4:53 AM 28.0 °F - 27.0 °F 96% 29.89 in 10.0 mi Calm Calm - N/A   Clear
5:34 AM 28.0 °F - 26.1 °F 92% 29.87 in 10.0 mi Calm Calm - N/A   Scattered Clouds
5:38 AM 28.0 °F - 26.1 °F 92% 29.87 in 10.0 mi Calm Calm - N/A   Mostly Cloudy
5:53 AM 28.0 °F - 26.1 °F 92% 29.90 in 10.0 mi Calm Calm - N/A   Scattered Clouds
6:01 AM 28.0 °F - 26.1 °F 92% 29.88 in 10.0 mi Calm Calm - N/A   Mostly Cloudy
6:39 AM 28.0 °F - 26.1 °F 92% 29.88 in 10.0 mi Calm Calm - N/A   Mostly Cloudy
6:53 AM 28.9 °F - 27.0 °F 92% 29.91 in 10.0 mi Calm Calm - N/A   Scattered Clouds
7:53 AM 35.1 °F - 33.1 °F 92% 29.91 in 10.0 mi Calm Calm - N/A   Clear
8:53 AM 41.0 °F - 36.0 °F 82% 29.91 in 10.0 mi Calm Calm - N/A   Clear
9:53 AM 46.9 °F - 39.0 °F 74% 29.91 in 10.0 mi Calm Calm - N/A   Clear
10:53 AM 54.0 °F - 37.9 °F 55% 29.90 in 10.0 mi Variable 6.9 mph - N/A   Clear
11:53 AM 57.9 °F - 39.9 °F 51% 29.89 in 10.0 mi Variable 5.8 mph - N/A   Clear
12:53 PM 61.0 °F - 41.0 °F 48% 29.88 in 10.0 mi East 6.9 mph - N/A   Clear
1:53 PM 63.0 °F - 39.9 °F 43% 29.87 in 10.0 mi SE 8.1 mph - N/A   Partly Cloudy
2:53 PM 63.0 °F - 41.0 °F 45% 29.86 in 10.0 mi Variable 4.6 mph - N/A   Overcast
3:53 PM 64.9 °F - 39.9 °F 40% 29.85 in 10.0 mi NNE 3.5 mph - N/A   Overcast
4:53 PM 64.0 °F - 41.0 °F 43% 29.86 in 10.0 mi North 3.5 mph - N/A   Overcast
5:53 PM 66.0 °F - 39.0 °F 37% 29.86 in 10.0 mi Calm Calm - N/A   Mostly Cloudy
6:53 PM 62.1 °F - 44.1 °F 52% 29.86 in 10.0 mi Calm Calm - N/A   Partly Cloudy
7:53 PM 57.9 °F - 48.0 °F 70% 29.87 in 10.0 mi Calm Calm - N/A   Overcast
8:53 PM 52.0 °F - 46.9 °F 83% 29.88 in 10.0 mi South 4.6 mph - N/A   Scattered Clouds
9:53 PM 46.0 °F 44.8 °F 42.1 °F 86% 29.89 in 10.0 mi SSE 3.5 mph - N/A   Mostly Cloudy
10:53 PM 42.1 °F - 39.0 °F 89% 29.91 in 7.0 mi Calm Calm - N/A   Scattered Clouds
11:53 PM 39.0 °F - 37.0 °F 93% 29.92 in 6.0 mi Calm Calm - N/A   Overcast